User: anonymous   Login
Location: Trois-Rivi�res
(46.3500°N, 72.5500°W)
Time: 15:02:35
(UTC-05:00)
Language:

Cosmos 1975 - Orbit

View from above orbital plane
View from above orbital plane
View from above satellite
View from above satellite

Ground track
Ground track

The orbit data is extracted from the following two-line orbital elements,

1 19573U 88093A   15064.60187272  .00002954  00000-0  22285-3 0  9994
2 19573 082.5182 071.9999 0013039 255.0983 104.8799 15.02050275434416
Epoch (UTC): 05 March 2015 14:26:41
Eccentricity: 0.0013039
inclination: 82.5182°
perigee height: 551 km
apogee height: 569 km
right ascension of ascending node: 71.9999°
argument of perigee: 255.0983°
revolutions per day: 15.02050275
mean anomaly at epoch: 104.8799°
orbit number at epoch: 43441

The dashed part of the orbit path shows where the satellite is in the earth's shadow,  

DLR